Weather History for Crossville, TN

Change the Weather History Date:

Wednesday, October 16, 2013

  Actual Average Record
Temperature  
Mean Temperature 63 °F 57 °F  
Max Temperature 66 °F 68 °F 78 °F (1965)
Min Temperature 60 °F 46 °F 31 °F (1955)
Degree Days  
Heating Degree Days 2    
Month to date heating degree days 27  
Since 1 July heating degree days 42  
Cooling Degree Days 0    
Month to date cooling degree days 26  
Year to date cooling degree days 919  
Growing Degree Days 13 (Base 50)    
Moisture  
Dew Point 58 °F    
Average Humidity 84    
Maximum Humidity 90    
Minimum Humidity 78    
Precipitation  
Precipitation 0.03 in 0.08 in 0.89 in (1975)
Month to date precipitation 0.48 1.57  
Year to date precipitation 50.13 43.57  
Sea Level Pressure  
Sea Level Pressure 30.01 in    
Wind  
Wind Speed 2 mph (South)    
Max Wind Speed 8 mph    
Max Gust Speed 12 mph    
Visibility 7 miles    
Events Rain    
T = Trace of Precipitation, MM = Missing Value Source: NWS Daily Summary

Daily Weather History Graph

Daily Weather History Graph

Search for Another Location

Airport:

Trip Planner

Search our weather history database for the weather conditions in past years. The results will help you decide how hot, cold, wet, or windy it might be!

Date:

Astronomy

Oct. 16, 2013 Rise Set
Actual Time 6:48 AM CDT 6:02 PM CDT
Civil Twilight 6:22 AM CDT 6:28 PM CDT
Nautical Twilight 5:52 AM CDT 6:58 PM CDT
Astronomical Twilight 5:22 AM CDT 7:28 PM CDT
Moon 4:39 PM CDT (10/16) 4:19 AM CDT (10/16)
Length of Visible Light 12h 06m
Length of Day
11h 14m
Waxing Gibbous, 94% of the Moon is Illuminated
Oct 16
Waxing Gibbous
Oct 18
Full
Oct 26
Last Quarter
Nov 3
New
Nov 9
First Quarter

Hourly Weather History & Observations

Time (CDT) Temp. Dew Point Humidity Pressure Visibility Wind Dir Wind Speed Gust Speed Precip Events Conditions
12:53 AM 61.0 °F 55.0 °F 81% 30.02 in 10.0 mi Variable 4.6 mph - N/A   Mostly Cloudy
1:53 AM 61.0 °F 55.0 °F 81% 30.01 in 10.0 mi SW 3.5 mph - N/A   Overcast
2:53 AM 61.0 °F 55.0 °F 81% 30.00 in 10.0 mi Calm Calm - N/A   Overcast
3:53 AM 61.0 °F 55.0 °F 81% 29.99 in 10.0 mi Calm Calm - N/A   Partly Cloudy
4:53 AM 61.0 °F 55.0 °F 81% 30.01 in 10.0 mi Variable 3.5 mph - N/A   Overcast
5:53 AM 61.0 °F 55.0 °F 81% 30.01 in 10.0 mi Variable 3.5 mph - N/A   Overcast
6:53 AM 60.1 °F 55.0 °F 83% 30.02 in 10.0 mi South 4.6 mph - N/A   Overcast
7:53 AM 60.1 °F 55.9 °F 86% 30.04 in 3.0 mi Calm Calm - 0.00 in Rain Light Rain
8:07 AM 60.8 °F 55.4 °F 82% 30.09 in 2.5 mi Calm Calm - 0.00 in Rain Light Rain
8:14 AM 60.8 °F 55.4 °F 82% 30.09 in 4.0 mi Calm Calm - 0.01 in   Overcast
8:23 AM 60.8 °F 55.4 °F 82% 30.08 in 2.0 mi Calm Calm - 0.01 in Rain Light Rain
8:42 AM 60.8 °F 55.4 °F 82% 30.07 in 3.0 mi South 3.5 mph - 0.02 in   Overcast
8:53 AM 61.0 °F 57.0 °F 87% 30.04 in 6.0 mi Variable 3.5 mph - 0.02 in   Overcast
9:19 AM 60.8 °F 57.2 °F 88% 30.08 in 9.0 mi Variable 5.8 mph - N/A   Overcast
9:53 AM 61.0 °F 57.0 °F 87% 30.04 in 10.0 mi Variable 3.5 mph - N/A   Overcast
10:24 AM 62.6 °F 57.2 °F 82% 30.07 in 9.0 mi South 4.6 mph - N/A   Overcast
10:53 AM 63.0 °F 57.9 °F 84% 30.03 in 9.0 mi Variable 4.6 mph - N/A   Overcast
11:53 AM 64.0 °F 57.9 °F 80% 30.02 in 10.0 mi Calm Calm - N/A   Overcast
12:29 PM 64.4 °F 59.0 °F 83% 30.05 in 10.0 mi Variable 4.6 mph - N/A   Overcast
12:53 PM 64.9 °F 59.0 °F 81% 30.00 in 10.0 mi Calm Calm - N/A   Overcast
1:53 PM 64.9 °F 59.0 °F 81% 29.98 in 10.0 mi Calm Calm - N/A   Overcast
2:43 PM 64.4 °F 59.0 °F 83% 30.01 in 10.0 mi Calm Calm - N/A   Overcast
2:53 PM 64.9 °F 59.0 °F 81% 29.97 in 10.0 mi Calm Calm - N/A   Overcast
3:53 PM 66.0 °F 59.0 °F 78% 29.96 in 10.0 mi Variable 4.6 mph - N/A   Overcast
4:53 PM 64.9 °F 59.0 °F 81% 29.96 in 10.0 mi South 3.5 mph - N/A   Overcast
5:26 PM 64.4 °F 59.0 °F 83% 30.00 in 10.0 mi SSE 3.5 mph - N/A   Overcast
5:53 PM 64.0 °F 59.0 °F 84% 29.95 in 10.0 mi SSE 3.5 mph - N/A   Overcast
6:53 PM 64.0 °F 59.0 °F 84% 29.96 in 8.0 mi Calm Calm - 0.00 in Rain Light Rain
7:29 PM 62.6 °F 60.8 °F 94% 30.01 in 2.0 mi Calm Calm - 0.03 in Rain Light Rain
7:53 PM 63.0 °F 60.1 °F 90% 29.97 in 1.8 mi Calm Calm - 0.05 in Rain Light Rain
8:03 PM 62.6 °F 60.8 °F 94% 30.01 in 1.8 mi SE 3.5 mph - 0.01 in Rain Light Rain
8:23 PM 62.6 °F 60.8 °F 94% 30.00 in 2.0 mi Calm Calm - 0.03 in Rain Light Rain
8:34 PM 62.6 °F 60.8 °F 94% 30.00 in 1.8 mi Variable 3.5 mph - 0.05 in Rain Light Rain
8:45 PM 62.6 °F 60.8 °F 94% 30.00 in 2.0 mi Variable 3.5 mph - 0.05 in Rain Light Rain
8:53 PM 63.0 °F 60.1 °F 90% 29.97 in 2.5 mi Calm Calm - 0.05 in   Overcast
9:26 PM 64.4 °F 60.8 °F 88% 30.00 in 3.0 mi SSE 3.5 mph - 0.02 in   Overcast
9:53 PM 63.0 °F 59.0 °F 87% 29.96 in 4.0 mi SSE 4.6 mph - 0.02 in   Overcast
10:53 PM 63.0 °F 60.1 °F 90% 29.94 in 3.0 mi Variable 5.8 mph - 0.01 in   Overcast
11:12 PM 62.6 °F 60.8 °F 94% 29.97 in 2.5 mi South 4.6 mph - N/A   Overcast
11:31 PM 62.6 °F 60.8 °F 94% 29.97 in 4.0 mi South 4.6 mph - N/A   Overcast
11:53 PM 63.0 °F 60.1 °F 90% 29.92 in 4.0 mi South 5.8 mph - 0.01 in   Overcast